Flag for Germany Weather past 2 weeks in Peine, Lower Saxony, Germany

Now
57 °F

Sunny.


Feels Like: 55 °F
Forecast: 53 / 77 °F
Wind: 8 mph from East

Location: Braunschweig

Current Time: Aug 1, 2015 at 10:07:07 AM

Latest Report: Aug 1, 2015 at 8:50 AM


Visibility: 10 mi

Pressure: 30.04 "Hg

Humidity: 67%

Dew point: 46 °F

Location of PeineLocation

Historic Weather in Peine — Graph

°F

Peine temperature yesterday

Maximum temperature yesterday: 64 °F (at 2:50 PM)
Minimum temperature yesterday: 50 °F (at 6:50 AM)
Average temperature yesterday: 61 °F

Past Weeks' High & Low Weather Summary

 TemperatureHumidityPressure
High91 °F (Jul 17, 4:50 PM)100% (Jul 17, 8:50 AM)30.12 "Hg (Jul 17, 8:50 AM)
Low50 °F (Jul 31, 6:50 AM)24% (Jul 17, 6:50 PM)29.53 "Hg (Jul 25, 1:50 PM)
Average67 °F65%29.85 "Hg
* Reported Jul 17 8:20 AM — Aug 1 8:50 AM, Peine, Weather by CustomWeather, © 2015

Note: Actual official high and low records may vary slightly from our data, if they occured in-between our weather recording intervals... More about our weather records

Advertising

Peine weather history for previous 24 hours

 ConditionsComfort  
Time TempWeatherWind HumidityBarometerVisibility
8:50 AM
Sat, Aug 1
57 °FSunny.8 mph67%30.04 "Hg10 mi
7:50 PM
Fri, Jul 31
64 °FPassing clouds.6 mph46%30.07 "HgN/A
7:20 PM64 °FSunny.3 mph40%30.07 "Hg10 mi
6:50 PM64 °FPassing clouds.5 mph43%30.07 "HgN/A
6:20 PM64 °FPassing clouds.6 mph43%30.09 "HgN/A
5:50 PM64 °FPassing clouds.6 mph43%30.09 "HgN/A
5:20 PM64 °FPassing clouds.9 mph43%30.09 "HgN/A
4:50 PM64 °FPassing clouds.7 mph43%30.09 "HgN/A
4:20 PM64 °FPassing clouds.8 mph43%30.09 "HgN/A
3:50 PM64 °FPassing clouds.8 mph40%30.09 "HgN/A
3:20 PM63 °FPassing clouds.7 mph49%30.09 "HgN/A
2:50 PM64 °FPassing clouds.10 mph43%30.09 "HgN/A
2:20 PM63 °FPassing clouds.8 mph49%30.09 "HgN/A
1:50 PM63 °FPassing clouds.10 mph45%30.12 "HgN/A
1:20 PM63 °FScattered clouds.9 mph45%30.09 "HgN/A
12:50 PM61 °FScattered clouds.9 mph52%30.09 "HgN/A
12:20 PM61 °FScattered clouds.7 mph55%30.09 "HgN/A
11:50 AM61 °FScattered clouds.9 mph55%30.09 "HgN/A
11:20 AM59 °FBroken clouds.9 mph55%30.09 "HgN/A
10:50 AM61 °FBroken clouds.9 mph52%30.09 "HgN/A
10:20 AM57 °FScattered clouds.7 mph63%30.09 "HgN/A
Weather by CustomWeather, © 2015

See weather overviewHow to use our weather pages